Regional Weather Roundup
Issued by NWS Kansas City/Pleasant Hill, MO

Home | Current Version | Previous Version | Graphics & Text | Print | Product List | Glossary Off
Versions: 1 2 3 4 5 6 7 8 9 10 11 12 13 14 15 16 17 18 19 20 21 22 23 24 25 26 27

000
ASUS43 KEAX 290610
RWREAX

WEATHER ROUNDUP FOR EASTERN KANSAS AND NORTHWEST MISSOURI
NATIONAL WEATHER SERVICE KANSAS CITY/PLEASANT HILL MO
100 AM CDT THU SEP 29 2016

KSZ040-057-103>105-MOZ028-029-037-043-290700-
...KANSAS CITY METROPOLITAN AREA...

CITY           SKY/WX    TMP DP  RH WIND       PRES   REMARKS
K.C. INTL      PTCLDY    51  46  83 N8        30.28S
6HR MIN TEMP:  50; 6HR MAX TEMP:  60;

K.C. DOWNTOWN  CLEAR     55  47  74 N7        30.27S
6HR MIN TEMP:  55; 6HR MAX TEMP:  64;

LEES SUMMIT    CLEAR     53  47  79 N8        30.27S
6HR MIN TEMP:  53; 6HR MAX TEMP:  62;

OLATHE - IXD   CLEAR     50  46  86 N7        30.29R
6HR MIN TEMP:  49; 6HR MAX TEMP:  61;

OLATHE - OJC   CLEAR     53  46  77 N5        30.27S
6HR MIN TEMP:  53; 6HR MAX TEMP:  61;

LAWRENCE       CLEAR     49  48  97 W6        30.30R

$$

MOZ001>008-011>017-020>025-030>033-038>040-044>046-053-054-290700-
...NORTHERN AND CENTRAL MISSOURI...

CITY           SKY/WX    TMP DP  RH WIND       PRES   REMARKS
ST. JOSEPH     CLEAR     50  47  89 N7        30.30S
6HR MIN TEMP:  50; 6HR MAX TEMP:  63;

MOSBY          CLEAR     48  46  93 NW3       30.27F
WHITEMAN AFB   CLEAR     52  51  96 NW7       30.23S
6HR MIN TEMP:  51; 6HR MAX TEMP:  61;

CLINTON        CLEAR     50  46  87 N7        30.25S
SEDALIA        CLEAR     53  48  83 N7        30.24S
6HR MIN TEMP:  53; 6HR MAX TEMP:  60;

WARSAW         NOT AVBL
CHILLICOTHE      N/A     55  49  80 VRB5      30.27S
6HR MIN TEMP:  54; 6HR MAX TEMP:  61;

KIRKSVILLE     CLEAR     53  48  83 N9        30.24S
6HR MIN TEMP:  52; 6HR MAX TEMP:  59;


$$

MOZ041-047>049-056>058-063>065-088>090-097-290700-
...EASTERN AND SOUTHERN MISSOURI...

CITY           SKY/WX    TMP DP  RH WIND       PRES   REMARKS
ST. LOUIS INTL CLEAR     56  49  77 NW10      30.13S
6HR MIN TEMP:  56; 6HR MAX TEMP:  62;

SPIRIT OF STL  CLEAR     56  50  80 NW9       30.13F
COLUMBIA       CLEAR     52  49  89 NW9       30.20S
JEFFERSON CITY CLEAR     54  49  83 NW6       30.20S
ROLLA          CLEAR     52  48  86 NW7       30.17S
OSAGE BEACH    CLEAR     51  48  89 N3        30.21F
SPRINGFIELD    CLEAR     52  46  80 NW7       30.22R
BRANSON        CLEAR     50  46  87 CALM      30.22S
JOPLIN         CLEAR     51  48  89 N5        30.25R
WEST PLAINS    CLEAR     52  46  80 N6        30.18F

$$

IAZ060-094-KSZ022-034>040-054-083-096-NEZ052-066-093-290700-
...KANSAS...SOUTHEAST NEBRASKA AND IOWA...

CITY           SKY/WX    TMP DP  RH WIND       PRES   REMARKS
TOPEKA         MOCLDY    52  48  86 NW3       30.30S
6HR MIN TEMP:  51; 6HR MAX TEMP:  62;

MANHATTAN      MOCLDY    53  47  79 N3        30.32R
EMPORIA        CLEAR     52  48  86 N5        30.30R
CHANUTE        CLEAR     52  48  86 N5        30.27R
WICHITA        CLEAR     56  47  71 NE9       30.29R
OMAHA          CLEAR     47  43  86 N6        30.35R
LINCOLN        CLEAR     50  45  83 N6        30.37R
FALLS CITY     CLEAR     52  47  83 NW6       30.31S
LAMONI         CLEAR     52  48  86 N8        30.28S
DES MOINES     CLEAR     55  50  83 N9        30.29S

$$





USA.gov is the U.S. government's official web portal to all federal, state and local government web resources and services.